Location: Madden
(51.3728°N, 114.3297°W)
Time: 12:20:39
(UTC+00:00)

PCSat - Visible Passes

Search period start: 05 December 2023 00:00
Search period end: 15 December 2023 00:00
Orbit: 784 x 792 km, 67.1° (Epoch: 04 December)

Date Brightness Start Highest point End Pass type
(mag) Time Alt. Az. Time Alt. Az. Time Alt. Az.
05 Dec 12.1 10:46:34 16° E 10:46:34 16° E 10:48:28 10° ENE visible
05 Dec 9.4 12:27:17 84° SW 12:27:27 88° NW 12:32:55 10° NE visible
05 Dec 10.6 14:08:00 14° W 14:11:32 27° NNW 14:16:07 10° NNE visible
06 Dec 10.2 11:57:18 51° ENE 11:57:18 51° ENE 12:01:24 10° NE visible
06 Dec 10.4 13:38:01 25° WNW 13:39:49 31° NW 13:44:39 10° NNE visible
07 Dec 11.3 11:27:10 29° NE 11:27:10 29° NE 11:29:51 10° NE visible
07 Dec 10.1 13:07:52 37° NW 13:08:09 37° NW 13:13:12 10° NNE visible
08 Dec 12.0 10:56:55 17° NE 10:56:55 17° NE 10:58:14 10° NE visible
08 Dec 10.2 12:37:37 40° N 12:37:37 40° N 12:41:44 10° NNE visible
08 Dec 11.1 14:18:19 13° NW 14:21:13 19° NNW 14:25:01 10° NNE visible
09 Dec 10.8 12:07:17 32° NNE 12:07:17 32° NNE 12:10:17 10° NNE visible
09 Dec 10.9 13:47:58 19° NW 13:49:26 21° NNW 13:53:28 10° NNE visible
10 Dec 11.5 11:36:53 22° NNE 11:36:53 22° NNE 11:38:47 10° NE visible
10 Dec 10.8 13:17:34 23° NNW 13:17:39 23° NNW 13:21:58 10° NNE visible
11 Dec 12.1 11:06:25 15° NE 11:06:25 15° NE 11:07:18 10° NE visible
11 Dec 10.9 12:47:07 25° N 12:47:07 25° N 12:50:29 10° NNE visible
11 Dec 11.4 14:27:56 10° NW 14:31:07 15° N 14:34:19 10° NNE visible
12 Dec 11.3 12:16:36 22° N 12:16:36 22° N 12:19:01 10° NNE visible
12 Dec 11.3 13:57:17 14° NW 13:59:15 16° N 14:02:35 10° NNE visible
13 Dec 11.7 11:46:03 18° NNE 11:46:03 18° NNE 11:47:34 10° NNE visible
13 Dec 11.2 13:26:44 17° NNW 13:27:24 17° NNW 13:30:57 10° NNE visible
14 Dec 12.1 11:15:29 13° NNE 11:15:29 13° NNE 11:16:06 10° NNE visible
14 Dec 11.3 12:56:10 18° N 12:56:10 18° N 12:59:21 10° NNE visible
14 Dec 11.5 14:37:48 10° NNW 14:41:04 16° N 14:44:20 10° NE visible
